This is the latest recevied weather packets stored in our database for station/object n3uvr. If no packets are shown the sender has not sent any weather packets the latest 10 day(s).
| Time | Temp. | Humidity | Pressure | Rain* | Wind** | Luminosity | Snow |
|---|---|---|---|---|---|---|---|
| 1777797112 | 4.44° C | 72% | 1011 hPa | 0 mm | - | 0 W/m² | - |
| 1777796502 | 4.44° C | 72% | 1011 hPa | 0 mm | - | 0 W/m² | - |
| 1777795315 | 4.44° C | 70% | 1010.9 hPa | 0 mm | - | 0 W/m² | - |
| 1777794713 | 5° C | 70% | 1010.9 hPa | 0 mm | - | 0 W/m² | - |
| 1777794102 | 5° C | 69% | 1011 hPa | 0 mm | - | 0 W/m² | - |
| 1777792292 | 5.56° C | 67% | 1011 hPa | 0 mm | - | 0 W/m² | - |
| 1777791685 | 5.56° C | 67% | 1011.1 hPa | 0 mm | - | 0 W/m² | - |
| 1777789310 | 5.56° C | 65% | 1011.2 hPa | 0 mm | - | 0 W/m² | - |
| 1777788107 | 6.11° C | 64% | 1011.4 hPa | 0 mm | - | 0 W/m² | - |
| 1777787532 | 6.11° C | 63% | 1011.4 hPa | 0 mm | - | 0 W/m² | - |
| 1777786917 | 6.11° C | 64% | 1011.5 hPa | 0 mm | - | 0 W/m² | - |
| 1777786323 | 6.67° C | 63% | 1011.6 hPa | 0 mm | - | 0 W/m² | - |
| 1777785712 | 6.67° C | 64% | 1011.7 hPa | 0 mm | - | 0 W/m² | - |
| 1777783919 | 6.67° C | 61% | 1011.8 hPa | 0 mm | - | 0 W/m² | - |
| 1777783313 | 6.67° C | 60% | 1012 hPa | 0 mm | - | 0 W/m² | - |
| 1777782717 | 6.67° C | 59% | 1012 hPa | 0 mm | - | 0 W/m² | - |
| 1777781524 | 7.22° C | 60% | 1012 hPa | 0 mm | - | 0 W/m² | - |
| 1777780904 | 7.22° C | 60% | 1011.8 hPa | 0 mm | - | 0 W/m² | - |
| 1777779654 | 7.22° C | 59% | 1011.8 hPa | 0 mm | - | 0 W/m² | - |
| 1777779061 | 7.22° C | 59% | 1011.8 hPa | 0 mm | - | 0 W/m² | - |
| 1777778464 | 7.22° C | 61% | 1012 hPa | 0 mm | - | 0 W/m² | - |
| 1777777255 | 7.78° C | 60% | 1011.8 hPa | 0 mm | - | 0 W/m² | - |
| 1777776669 | 7.78° C | 59% | 1011.8 hPa | 0 mm | - | 0 W/m² | - |
| 1777775436 | 7.78° C | 58% | 1011.8 hPa | 0 mm | - | 0 W/m² | - |
| 1777774830 | 7.78° C | 57% | 1011.7 hPa | 0 mm | - | 0 W/m² | - |
* Rain latest hour (hover to see other rain measurements)
** Current wind speed in m/s (hover to see current wind gust speed)